Time,TemperatureF,DewpointF,PressureIn,WindDirection,WindDirectionDegrees,WindSpeedMPH,WindSpeedGustMPH,Humidity,HourlyPrecipIn,Conditions,Clouds,dailyrainin,SoftwareType,DateUTC
2013-03-01 00:00:00,33.0,26.9,30.27,NNW,335,7.0,11.0,78,0.00,,OVC023,0.01,VWS V14.01,2013-03-01 06:00:00,
2013-03-01 00:01:00,33.0,26.9,30.27,NNW,347,7.0,9.0,78,0.00,,OVC023,0.00,VWS V14.01,2013-03-01 06:01:00,
2013-03-01 00:05:00,33.0,26.9,30.27,North,360,4.0,9.0,78,0.00,,OVC027,0.00,VWS V14.01,2013-03-01 06:05:00,
2013-03-01 00:06:00,33.0,26.9,30.27,NNW,338,1.0,6.0,78,0.00,,OVC023,0.00,VWS V14.01,2013-03-01 06:06:00,
2013-03-01 00:10:00,32.9,26.5,30.27,NW,322,7.0,8.0,77,0.00,,OVC023,0.00,VWS V14.01,2013-03-01 06:10:00,
2013-03-01 00:11:00,32.9,26.5,30.27,North,353,8.0,8.0,77,0.00,,OVC023,0.00,VWS V14.01,2013-03-01 06:11:00,
2013-03-01 00:15:00,32.9,26.8,30.27,NNW,327,3.0,8.0,78,0.00,,OVC023,0.00,VWS V14.01,2013-03-01 06:15:00,
2013-03-01 00:16:00,32.9,26.8,30.27,North,1,7.0,9.0,78,0.00,,OVC023,0.00,VWS V14.01,2013-03-01 06:16:00,
2013-03-01 00:20:00,32.8,26.7,30.26,NNW,341,5.0,9.0,78,0.00,,OVC023,0.00,VWS V14.01,2013-03-01 06:20:00,
2013-03-01 00:21:00,32.8,26.7,30.26,NNE,17,2.0,6.0,78,0.00,,OVC023,0.00,VWS V14.01,2013-03-01 06:21:00,
2013-03-01 00:25:00,32.7,26.6,30.26,NNW,338,1.0,6.0,78,0.00,,OVC023,0.00,VWS V14.01,2013-03-01 06:25:00,
2013-03-01 00:26:00,32.7,26.6,30.26,NW,325,3.0,5.0,78,0.00,,OVC023,0.00,VWS V14.01,2013-03-01 06:26:00,
2013-03-01 00:30:00,32.6,26.5,30.26,North,352,4.0,6.0,78,0.00,,OVC023,0.00,VWS V14.01,2013-03-01 06:30:00,
2013-03-01 00:31:00,32.6,26.5,30.26,NW,321,2.0,7.0,78,0.00,,OVC023,0.00,VWS V14.01,2013-03-01 06:31:00,
2013-03-01 00:35:00,32.5,26.4,30.26,North,1,3.0,7.0,78,0.00,,OVC023,0.00,VWS V14.01,2013-03-01 06:35:00,
2013-03-01 00:36:00,32.5,26.4,30.26,NNE,18,4.0,4.0,78,0.00,,OVC021,0.00,VWS V14.01,2013-03-01 06:36:00,
2013-03-01 00:40:00,32.4,26.6,30.26,NW,322,2.0,5.0,79,0.00,,OVC023,0.00,VWS V14.01,2013-03-01 06:40:00,
2013-03-01 00:41:00,32.4,26.6,30.26,NNW,338,4.0,4.0,79,0.00,,OVC021,0.00,VWS V14.01,2013-03-01 06:41:00,
2013-03-01 00:45:00,32.2,26.4,30.26,North,349,3.0,5.0,79,0.00,,OVC027,0.00,VWS V14.01,2013-03-01 06:45:00,
2013-03-01 00:46:00,32.2,26.4,30.26,NW,316,3.0,4.0,79,0.00,,OVC021,0.00,VWS V14.01,2013-03-01 06:46:00,
2013-03-01 00:50:00,32.1,26.6,30.26,NW,325,2.0,5.0,80,0.00,,OVC023,0.00,VWS V14.01,2013-03-01 06:50:00,
2013-03-01 00:51:00,32.1,26.6,30.26,North,358,1.0,2.0,80,0.00,,OVC021,0.00,VWS V14.01,2013-03-01 06:51:00,
2013-03-01 00:55:00,32.1,26.6,30.26,NW,315,2.0,3.0,80,0.00,,OVC023,0.00,VWS V14.01,2013-03-01 06:55:00,
2013-03-01 00:56:00,32.0,26.5,30.26,NW,322,2.0,4.0,80,0.00,,OVC021,0.00,VWS V14.01,2013-03-01 06:56:00,
2013-03-01 01:00:00,31.9,26.4,30.26,NNW,340,3.0,4.0,80,0.00,,OVC023,0.00,VWS V14.01,2013-03-01 07:00:00,
2013-03-01 01:01:00,31.9,26.4,30.26,NW,310,3.0,3.0,80,0.00,,OVC021,0.00,VWS V14.01,2013-03-01 07:01:00,
2013-03-01 01:05:00,31.7,26.2,30.26,NW,315,2.0,4.0,80,0.00,,OVC023,0.00,VWS V14.01,2013-03-01 07:05:00,
2013-03-01 01:06:00,31.7,26.2,30.26,NW,321,2.0,2.0,80,0.00,,OVC021,0.00,VWS V14.01,2013-03-01 07:06:00,
2013-03-01 01:10:00,31.6,26.1,30.26,NNW,345,2.0,4.0,80,0.00,,OVC023,0.00,VWS V14.01,2013-03-01 07:10:00,
2013-03-01 01:11:00,31.6,26.1,30.26,NW,322,1.0,2.0,80,0.00,,OVC021,0.00,VWS V14.01,2013-03-01 07:11:00,
2013-03-01 01:15:00,31.4,26.0,30.26,NW,312,2.0,3.0,80,0.00,,OVC023,0.00,VWS V14.01,2013-03-01 07:15:00,
2013-03-01 01:16:00,31.4,26.0,30.26,North,353,2.0,2.0,80,0.00,,OVC021,0.00,VWS V14.01,2013-03-01 07:16:00,
2013-03-01 01:20:00,31.3,25.9,30.26,NNW,330,1.0,3.0,80,0.00,,OVC023,0.00,VWS V14.01,2013-03-01 07:20:00,
2013-03-01 01:21:00,31.3,26.2,30.26,NNW,330,1.0,2.0,81,0.00,,OVC021,0.00,VWS V14.01,2013-03-01 07:21:00,
2013-03-01 01:25:00,31.1,26.0,30.26,NNW,333,1.0,3.0,81,0.00,,OVC023,0.00,VWS V14.01,2013-03-01 07:25:00,
2013-03-01 01:26:00,31.1,26.0,30.26,NW,314,1.0,3.0,81,0.00,,OVC021,0.00,VWS V14.01,2013-03-01 07:26:00,
2013-03-01 01:30:00,30.9,25.8,30.26,NNW,333,2.0,3.0,81,0.00,,OVC023,0.00,VWS V14.01,2013-03-01 07:30:00,
2013-03-01 01:31:00,30.9,25.8,30.26,NNW,334,1.0,2.0,81,0.00,,OVC021,0.00,VWS V14.01,2013-03-01 07:31:00,
2013-03-01 01:35:00,30.7,25.6,30.26,NNW,338,1.0,2.0,81,0.00,,OVC021,0.00,VWS V14.01,2013-03-01 07:35:00,
2013-03-01 01:40:00,30.6,25.8,30.26,NW,322,1.0,2.0,82,0.00,,OVC021,0.00,VWS V14.01,2013-03-01 07:40:00,
2013-03-01 01:45:00,30.4,25.9,30.26,NW,322,0.0,0.0,83,0.00,,OVC021,0.00,VWS V14.01,2013-03-01 07:45:00,
2013-03-01 01:50:00,30.0,25.5,30.27,NW,322,1.0,1.0,83,0.00,,OVC021,0.00,VWS V14.01,2013-03-01 07:50:00,
2013-03-01 01:55:00,29.9,25.7,30.27,NW,316,2.0,2.0,84,0.00,,OVC021,0.00,VWS V14.01,2013-03-01 07:55:00,
2013-03-01 02:00:00,29.9,25.7,30.27,NW,322,1.0,1.0,84,0.00,,OVC021,0.00,VWS V14.01,2013-03-01 08:00:00,
2013-03-01 02:05:00,29.9,25.4,30.27,NW,305,2.0,4.0,83,0.00,,OVC021,0.00,VWS V14.01,2013-03-01 08:05:00,
2013-03-01 02:10:00,29.9,25.4,30.27,NNW,330,2.0,3.0,83,0.00,,OVC021,0.00,VWS V14.01,2013-03-01 08:10:00,
2013-03-01 02:15:00,29.9,25.4,30.27,NNW,329,1.0,3.0,83,0.00,,OVC021,0.00,VWS V14.01,2013-03-01 08:15:00,
2013-03-01 02:20:00,29.9,25.4,30.27,NNW,345,2.0,3.0,83,0.00,,OVC021,0.00,VWS V14.01,2013-03-01 08:20:00,
2013-03-01 02:25:00,29.8,25.3,30.27,NW,304,4.0,4.0,83,0.00,,OVC021,0.00,VWS V14.01,2013-03-01 08:25:00,
2013-03-01 02:30:00,29.8,25.3,30.27,NW,316,4.0,4.0,83,0.00,,OVC021,0.00,VWS V14.01,2013-03-01 08:30:00,
2013-03-01 02:35:00,29.8,25.6,30.27,NNE,25,1.0,4.0,84,0.00,,BKN021,0.00,VWS V14.01,2013-03-01 08:35:00,
2013-03-01 02:40:00,29.7,25.5,30.27,NW,318,1.0,2.0,84,0.00,,BKN021,0.00,VWS V14.01,2013-03-01 08:40:00,
2013-03-01 02:45:00,29.6,25.4,30.27,NW,324,1.0,3.0,84,0.00,,BKN021,0.00,VWS V14.01,2013-03-01 08:45:00,
2013-03-01 02:50:00,29.5,25.3,30.27,NW,316,0.0,0.0,84,0.00,,BKN021,0.00,VWS V14.01,2013-03-01 08:50:00,
2013-03-01 02:55:00,29.4,25.2,30.27,NW,316,1.0,2.0,84,0.00,,BKN021,0.00,VWS V14.01,2013-03-01 08:55:00,
2013-03-01 03:00:00,29.4,25.5,30.27,NW,316,1.0,1.0,85,0.00,,BKN021,0.00,VWS V14.01,2013-03-01 09:00:00,
2013-03-01 03:05:00,29.5,25.8,30.27,NW,321,2.0,2.0,86,0.00,,BKN021,0.00,VWS V14.01,2013-03-01 09:05:00,
2013-03-01 03:10:00,29.5,25.6,30.27,NW,316,2.0,3.0,85,0.00,,BKN021,0.00,VWS V14.01,2013-03-01 09:10:00,
2013-03-01 03:15:00,29.5,25.6,30.27,WNW,292,2.0,3.0,85,0.00,,BKN021,0.00,VWS V14.01,2013-03-01 09:15:00,
2013-03-01 03:20:00,29.4,25.5,30.26,NW,324,2.0,4.0,85,0.00,,BKN021,0.00,VWS V14.01,2013-03-01 09:20:00,
2013-03-01 03:25:00,29.2,25.3,30.26,North,356,2.0,2.0,85,0.00,,BKN021,0.00,VWS V14.01,2013-03-01 09:25:00,
2013-03-01 03:30:00,29.2,25.3,30.26,NW,323,0.0,1.0,85,0.00,,BKN021,0.00,VWS V14.01,2013-03-01 09:30:00,
2013-03-01 03:35:00,29.2,25.5,30.26,NNW,330,1.0,2.0,86,0.00,,OVC023,0.00,VWS V14.01,2013-03-01 09:35:00,
2013-03-01 03:40:00,29.2,25.5,30.26,WNW,285,1.0,1.0,86,0.00,,OVC023,0.00,VWS V14.01,2013-03-01 09:40:00,
2013-03-01 03:45:00,29.2,25.5,30.26,NW,311,2.0,2.0,86,0.00,,OVC023,0.00,VWS V14.01,2013-03-01 09:45:00,
2013-03-01 03:50:00,29.2,25.5,30.27,WNW,295,1.0,2.0,86,0.00,,OVC023,0.00,VWS V14.01,2013-03-01 09:50:00,
2013-03-01 03:55:00,29.1,25.4,30.27,WNW,287,2.0,2.0,86,0.00,,OVC023,0.00,VWS V14.01,2013-03-01 09:55:00,
2013-03-01 04:00:00,29.1,25.4,30.27,WNW,302,2.0,2.0,86,0.00,,OVC023,0.00,VWS V14.01,2013-03-01 10:00:00,
2013-03-01 04:05:00,29.1,25.4,30.27,NW,307,2.0,4.0,86,0.00,,OVC023,0.00,VWS V14.01,2013-03-01 10:05:00,
2013-03-01 04:10:00,29.2,25.5,30.27,WNW,297,3.0,3.0,86,0.00,,OVC023,0.00,VWS V14.01,2013-03-01 10:10:00,
2013-03-01 04:15:00,29.3,25.6,30.27,SE,127,0.0,1.0,86,0.00,,OVC023,0.00,VWS V14.01,2013-03-01 10:15:00,
2013-03-01 04:20:00,29.1,25.4,30.27,West,266,2.0,3.0,86,0.00,,OVC023,0.00,VWS V14.01,2013-03-01 10:20:00,
2013-03-01 04:25:00,29.0,25.4,30.27,NW,326,1.0,2.0,86,0.00,,OVC023,0.00,VWS V14.01,2013-03-01 10:25:00,
2013-03-01 04:30:00,28.9,25.2,30.27,WNW,289,1.0,1.0,86,0.00,,OVC023,0.00,VWS V14.01,2013-03-01 10:30:00,
2013-03-01 04:35:00,28.8,25.1,30.27,NW,321,1.0,1.0,86,0.00,,OVC023,0.00,VWS V14.01,2013-03-01 10:35:00,
2013-03-01 04:40:00,28.8,25.1,30.27,NW,309,1.0,1.0,86,0.00,,OVC023,0.00,VWS V14.01,2013-03-01 10:40:00,
2013-03-01 04:45:00,28.8,25.4,30.27,SW,229,1.0,1.0,87,0.00,,OVC023,0.00,VWS V14.01,2013-03-01 10:45:00,
2013-03-01 04:50:00,28.7,25.3,30.27,WSW,248,0.0,1.0,87,0.00,,OVC023,0.00,VWS V14.01,2013-03-01 10:50:00,
2013-03-01 04:55:00,28.7,25.3,30.27,NW,310,2.0,2.0,87,0.00,,OVC023,0.00,VWS V14.01,2013-03-01 10:55:00,
2013-03-01 05:00:00,28.7,25.3,30.27,West,259,0.0,1.0,87,0.00,,OVC023,0.00,VWS V14.01,2013-03-01 11:00:00,
2013-03-01 05:05:00,28.7,25.0,30.27,West,271,2.0,2.0,86,0.00,,OVC023,0.00,VWS V14.01,2013-03-01 11:05:00,
2013-03-01 05:10:00,28.6,25.0,30.27,NNW,336,1.0,2.0,86,0.00,,OVC023,0.00,VWS V14.01,2013-03-01 11:10:00,
2013-03-01 05:15:00,28.5,24.9,30.27,West,278,0.0,1.0,86,0.00,,OVC023,0.00,VWS V14.01,2013-03-01 11:15:00,
2013-03-01 05:20:00,28.4,24.8,30.27,West,281,0.0,0.0,86,0.00,,OVC023,0.00,VWS V14.01,2013-03-01 11:20:00,
2013-03-01 05:25:00,28.4,25.0,30.27,NW,312,3.0,3.0,87,0.00,,OVC023,0.00,VWS V14.01,2013-03-01 11:25:00,
2013-03-01 05:30:00,28.4,24.8,30.28,WNW,296,0.0,1.0,86,0.00,,OVC023,0.00,VWS V14.01,2013-03-01 11:30:00,
2013-03-01 05:35:00,28.3,24.7,30.27,NW,314,3.0,4.0,86,0.00,,OVC023,0.00,VWS V14.01,2013-03-01 11:35:00,
2013-03-01 05:40:00,28.3,24.7,30.27,West,269,0.0,0.0,86,0.00,,OVC023,0.00,VWS V14.01,2013-03-01 11:40:00,
2013-03-01 05:45:00,28.2,24.6,30.27,WNW,283,1.0,1.0,86,0.00,,OVC023,0.00,VWS V14.01,2013-03-01 11:45:00,
2013-03-01 05:50:00,28.1,24.5,30.27,NW,321,4.0,4.0,86,0.00,,OVC023,0.00,VWS V14.01,2013-03-01 11:50:00,
2013-03-01 05:55:00,28.1,24.7,30.27,NW,312,2.0,3.0,87,0.00,,OVC023,0.00,VWS V14.01,2013-03-01 11:55:00,
2013-03-01 06:00:00,28.2,24.8,30.27,NW,321,3.0,3.0,87,0.00,,OVC023,0.00,VWS V14.01,2013-03-01 12:00:00,
2013-03-01 06:05:00,28.2,24.6,30.27,NW,307,2.0,2.0,86,0.00,,OVC023,0.00,VWS V14.01,2013-03-01 12:05:00,
2013-03-01 06:10:00,28.3,24.7,30.28,WNW,288,1.0,2.0,86,0.00,,OVC023,0.00,VWS V14.01,2013-03-01 12:10:00,
2013-03-01 06:15:00,28.3,24.7,30.28,WNW,292,1.0,2.0,86,0.00,,OVC023,0.00,VWS V14.01,2013-03-01 12:15:00,
2013-03-01 06:20:00,28.3,24.7,30.28,NW,311,2.0,2.0,86,0.00,,OVC023,0.00,VWS V14.01,2013-03-01 12:20:00,
2013-03-01 06:25:00,28.3,24.7,30.28,WNW,295,1.0,4.0,86,0.00,,OVC023,0.00,VWS V14.01,2013-03-01 12:25:00,
2013-03-01 06:30:00,28.3,24.9,30.28,NW,315,1.0,2.0,87,0.00,,OVC023,0.00,VWS V14.01,2013-03-01 12:30:00,
2013-03-01 06:35:00,28.5,25.1,30.28,NW,314,2.0,3.0,87,0.00,,OVC023,0.00,VWS V14.01,2013-03-01 12:35:00,
2013-03-01 06:40:00,28.4,24.8,30.28,NW,312,3.0,4.0,86,0.00,,OVC023,0.00,VWS V14.01,2013-03-01 12:40:00,
2013-03-01 06:45:00,28.4,24.8,30.28,NW,315,1.0,1.0,86,0.00,,OVC023,0.00,VWS V14.01,2013-03-01 12:45:00,
2013-03-01 06:50:00,28.4,24.8,30.28,NW,316,0.0,0.0,86,0.00,,OVC023,0.00,VWS V14.01,2013-03-01 12:50:00,
2013-03-01 06:55:00,28.4,24.8,30.28,NW,314,2.0,2.0,86,0.00,,OVC023,0.00,VWS V14.01,2013-03-01 12:55:00,
2013-03-01 07:00:00,28.3,24.7,30.28,NW,316,3.0,4.0,86,0.00,,OVC023,0.00,VWS V14.01,2013-03-01 13:00:00,
2013-03-01 07:05:00,28.4,24.8,30.28,NW,305,2.0,3.0,86,0.00,,OVC023,0.00,VWS V14.01,2013-03-01 13:05:00,
2013-03-01 07:10:00,28.4,24.8,30.28,WNW,293,0.0,1.0,86,0.00,,OVC023,0.00,VWS V14.01,2013-03-01 13:10:00,
2013-03-01 07:15:00,28.5,24.9,30.28,South,176,1.0,2.0,86,0.00,,OVC023,0.00,VWS V14.01,2013-03-01 13:15:00,
2013-03-01 07:20:00,28.4,24.8,30.29,NW,315,2.0,2.0,86,0.00,,OVC023,0.00,VWS V14.01,2013-03-01 13:20:00,
2013-03-01 07:25:00,28.4,24.8,30.29,WNW,290,2.0,2.0,86,0.00,,OVC023,0.00,VWS V14.01,2013-03-01 13:25:00,
2013-03-01 07:30:00,28.4,24.8,30.29,NW,315,4.0,4.0,86,0.00,,OVC023,0.00,VWS V14.01,2013-03-01 13:30:00,
2013-03-01 07:35:00,28.5,24.9,30.29,WNW,298,3.0,4.0,86,0.00,,OVC023,0.00,VWS V14.01,2013-03-01 13:35:00,
2013-03-01 07:40:00,28.6,25.0,30.29,NW,309,3.0,3.0,86,0.00,,OVC023,0.00,VWS V14.01,2013-03-01 13:40:00,
2013-03-01 07:45:00,28.9,25.2,30.29,NW,318,4.0,5.0,86,0.00,,OVC023,0.00,VWS V14.01,2013-03-01 13:45:00,
2013-03-01 07:50:00,29.2,25.5,30.30,NNW,338,5.0,7.0,86,0.00,,OVC023,0.00,VWS V14.01,2013-03-01 13:50:00,
2013-03-01 07:55:00,29.5,25.6,30.30,NW,316,5.0,7.0,85,0.00,,OVC023,0.00,VWS V14.01,2013-03-01 13:55:00,
2013-03-01 08:00:00,29.7,25.8,30.30,NW,305,3.0,4.0,85,0.00,,OVC023,0.00,VWS V14.01,2013-03-01 14:00:00,
2013-03-01 08:05:00,29.7,25.8,30.30,NW,307,5.0,7.0,85,0.00,,OVC023,0.00,VWS V14.01,2013-03-01 14:05:00,
2013-03-01 08:10:00,29.9,26.0,30.30,NW,315,4.0,5.0,85,0.00,,OVC023,0.00,VWS V14.01,2013-03-01 14:10:00,
2013-03-01 08:15:00,30.1,26.1,30.31,NW,319,3.0,3.0,85,0.00,,OVC023,0.00,VWS V14.01,2013-03-01 14:15:00,
2013-03-01 08:20:00,30.3,26.3,30.31,NW,315,5.0,5.0,85,0.00,,OVC023,0.00,VWS V14.01,2013-03-01 14:20:00,
2013-03-01 08:25:00,30.5,26.2,30.31,NNW,338,4.0,4.0,84,0.00,,OVC023,0.00,VWS V14.01,2013-03-01 14:25:00,
2013-03-01 08:30:00,30.6,26.4,30.31,West,260,2.0,3.0,84,0.00,,OVC023,0.00,VWS V14.01,2013-03-01 14:30:00,
2013-03-01 08:35:00,30.8,26.5,30.31,NW,326,5.0,5.0,84,0.00,,,0.00,VWS V14.01,2013-03-01 14:35:00,
2013-03-01 08:40:00,30.9,26.4,30.31,WNW,283,5.0,7.0,83,0.00,,,0.00,VWS V14.01,2013-03-01 14:40:00,
2013-03-01 08:45:00,31.0,26.5,30.31,NW,322,4.0,4.0,83,0.00,,,0.00,VWS V14.01,2013-03-01 14:45:00,
2013-03-01 08:50:00,31.1,26.5,30.31,NNW,329,3.0,3.0,83,0.00,,,0.00,VWS V14.01,2013-03-01 14:50:00,
2013-03-01 08:55:00,31.2,26.6,30.31,NW,318,8.0,8.0,83,0.00,,,0.00,VWS V14.01,2013-03-01 14:55:00,
2013-03-01 09:00:00,31.3,26.8,30.32,NNW,338,8.0,11.0,83,0.00,,,0.00,VWS V14.01,2013-03-01 15:00:00,
2013-03-01 09:05:00,31.3,26.8,30.32,NNW,333,4.0,4.0,83,0.00,,,0.00,VWS V14.01,2013-03-01 15:05:00,
2013-03-01 09:10:00,31.3,26.8,30.32,NNW,344,5.0,5.0,83,0.00,,,0.00,VWS V14.01,2013-03-01 15:10:00,
2013-03-01 09:15:00,31.1,26.0,30.32,North,3,6.0,9.0,81,0.00,,,0.00,VWS V14.01,2013-03-01 15:15:00,
2013-03-01 09:20:00,30.9,25.8,30.32,NNE,29,6.0,11.0,81,0.00,,,0.00,VWS V14.01,2013-03-01 15:20:00,
2013-03-01 09:25:00,30.9,26.1,30.32,NW,309,3.0,8.0,82,0.00,,,0.00,VWS V14.01,2013-03-01 15:25:00,
2013-03-01 09:30:00,31.0,25.9,30.33,NW,316,4.0,10.0,81,0.00,,,0.00,VWS V14.01,2013-03-01 15:30:00,
2013-03-01 09:35:00,31.0,25.6,30.33,North,353,11.0,11.0,80,0.00,,OVC019,0.00,VWS V14.01,2013-03-01 15:35:00,
2013-03-01 09:39:00,31.0,25.6,30.33,North,359,11.0,14.0,80,0.00,,OVC019,0.00,VWS V14.01,2013-03-01 15:39:00,
2013-03-01 09:40:00,31.0,25.6,30.33,NNW,338,11.0,14.0,80,0.00,,OVC027,0.00,VWS V14.01,2013-03-01 15:40:00,
2013-03-01 09:44:00,31.1,25.4,30.33,NW,322,8.0,11.0,79,0.00,,OVC019,0.00,VWS V14.01,2013-03-01 15:44:00,
2013-03-01 09:45:00,31.1,25.4,30.33,NNW,334,10.0,11.0,79,0.00,,OVC027,0.00,VWS V14.01,2013-03-01 15:45:00,
2013-03-01 09:49:00,31.2,25.5,30.33,North,349,2.0,14.0,79,0.00,,OVC019,0.00,VWS V14.01,2013-03-01 15:49:00,
2013-03-01 09:50:00,31.2,25.5,30.33,NW,315,2.0,14.0,79,0.00,,OVC027,0.00,VWS V14.01,2013-03-01 15:50:00,
2013-03-01 09:54:00,31.3,25.2,30.33,WNW,303,6.0,11.0,78,0.00,,OVC019,0.00,VWS V14.01,2013-03-01 15:54:00,
2013-03-01 09:55:00,31.3,25.2,30.33,NNW,338,9.0,11.0,78,0.00,,OVC027,0.00,VWS V14.01,2013-03-01 15:55:00,
2013-03-01 09:59:00,31.3,25.2,30.33,NNE,23,5.0,14.0,78,0.00,,OVC019,0.00,VWS V14.01,2013-03-01 15:59:00,
2013-03-01 10:00:00,31.3,25.2,30.33,NNE,13,4.0,14.0,78,0.00,,OVC027,0.00,VWS V14.01,2013-03-01 16:00:00,
2013-03-01 10:04:00,31.3,25.2,30.33,North,349,2.0,11.0,78,0.00,,OVC019,0.00,VWS V14.01,2013-03-01 16:04:00,
2013-03-01 10:05:00,31.3,25.2,30.33,NNE,17,3.0,11.0,78,0.00,,OVC027,0.00,VWS V14.01,2013-03-01 16:05:00,
2013-03-01 10:09:00,31.5,25.4,30.33,NNW,328,5.0,10.0,78,0.00,,OVC019,0.00,VWS V14.01,2013-03-01 16:09:00,
2013-03-01 10:10:00,31.5,25.4,30.33,North,9,4.0,10.0,78,0.00,,OVC027,0.00,VWS V14.01,2013-03-01 16:10:00,
2013-03-01 10:14:00,31.4,25.0,30.33,NNW,335,6.0,11.0,77,0.00,,OVC019,0.00,VWS V14.01,2013-03-01 16:14:00,
2013-03-01 10:15:00,31.4,25.0,30.33,NNE,25,9.0,11.0,77,0.00,,OVC027,0.00,VWS V14.01,2013-03-01 16:15:00,
2013-03-01 10:19:00,31.5,25.1,30.33,NNW,338,6.0,11.0,77,0.00,,OVC019,0.00,VWS V14.01,2013-03-01 16:19:00,
2013-03-01 10:20:00,31.5,25.1,30.33,NW,316,5.0,11.0,77,0.00,,OVC027,0.00,VWS V14.01,2013-03-01 16:20:00,
2013-03-01 10:24:00,31.5,25.1,30.33,North,4,7.0,11.0,77,0.00,,OVC019,0.00,VWS V14.01,2013-03-01 16:24:00,
2013-03-01 10:25:00,31.5,25.1,30.33,NNW,330,6.0,11.0,77,0.00,,OVC027,0.00,VWS V14.01,2013-03-01 16:25:00,
2013-03-01 10:29:00,31.5,25.1,30.33,NW,309,10.0,14.0,77,0.00,,OVC019,0.00,VWS V14.01,2013-03-01 16:29:00,
2013-03-01 10:30:00,31.5,25.1,30.33,North,352,6.0,14.0,77,0.00,,OVC027,0.00,VWS V14.01,2013-03-01 16:30:00,
2013-03-01 10:34:00,31.7,25.3,30.32,NNE,32,8.0,12.0,77,0.00,,OVC017,0.00,VWS V14.01,2013-03-01 16:34:00,
2013-03-01 10:35:00,31.7,25.3,30.32,NNE,24,6.0,12.0,77,0.00,,OVC027,0.00,VWS V14.01,2013-03-01 16:35:00,
2013-03-01 10:39:00,31.9,25.5,30.33,NNW,342,3.0,11.0,77,0.00,,OVC017,0.00,VWS V14.01,2013-03-01 16:39:00,
2013-03-01 10:40:00,31.9,25.5,30.33,NNW,328,4.0,11.0,77,0.00,,OVC027,0.00,VWS V14.01,2013-03-01 16:40:00,
2013-03-01 10:44:00,31.9,25.2,30.32,NW,309,5.0,11.0,76,0.00,,OVC017,0.00,VWS V14.01,2013-03-01 16:44:00,
2013-03-01 10:45:00,31.9,25.2,30.32,NNW,341,5.0,11.0,76,0.00,,OVC027,0.00,VWS V14.01,2013-03-01 16:45:00,
2013-03-01 10:49:00,31.9,25.2,30.33,NNW,335,7.0,11.0,76,0.00,,OVC017,0.00,VWS V14.01,2013-03-01 16:49:00,
2013-03-01 10:50:00,32.0,25.3,30.33,NNW,327,4.0,11.0,76,0.00,,OVC027,0.00,VWS V14.01,2013-03-01 16:50:00,
2013-03-01 10:54:00,32.0,25.3,30.33,WNW,298,8.0,11.0,76,0.00,,OVC017,0.00,VWS V14.01,2013-03-01 16:54:00,
2013-03-01 10:55:00,32.1,25.4,30.33,NW,323,7.0,11.0,76,0.00,,OVC027,0.00,VWS V14.01,2013-03-01 16:55:00,
2013-03-01 10:59:00,32.0,25.0,30.33,NNW,329,4.0,14.0,75,0.00,,OVC017,0.00,VWS V14.01,2013-03-01 16:59:00,
2013-03-01 11:00:00,32.0,25.0,30.33,NNW,330,5.0,14.0,75,0.00,,OVC027,0.00,VWS V14.01,2013-03-01 17:00:00,
2013-03-01 11:04:00,32.1,25.4,30.33,NNE,14,5.0,12.0,76,0.00,,OVC017,0.00,VWS V14.01,2013-03-01 17:04:00,
2013-03-01 11:05:00,32.8,25.4,30.33,NNE,13,6.0,11.0,74,0.00,,FEW085,0.00,VWS V14.01,2013-03-01 17:05:00,
2013-03-01 11:09:00,32.0,25.3,30.33,NNW,332,7.0,14.0,76,0.00,,OVC017,0.00,VWS V14.01,2013-03-01 17:09:00,
2013-03-01 11:10:00,32.0,25.3,30.33,NNW,329,10.0,14.0,76,0.00,,OVC027,0.00,VWS V14.01,2013-03-01 17:10:00,
2013-03-01 11:14:00,32.0,25.3,30.33,NNW,336,11.0,15.0,76,0.00,,OVC017,0.00,VWS V14.01,2013-03-01 17:14:00,
2013-03-01 11:15:00,32.0,25.3,30.33,NNW,344,9.0,15.0,76,0.00,,OVC027,0.00,VWS V14.01,2013-03-01 17:15:00,
2013-03-01 11:19:00,32.1,25.4,30.33,North,354,8.0,11.0,76,0.00,,OVC017,0.00,VWS V14.01,2013-03-01 17:19:00,
2013-03-01 11:20:00,32.2,25.5,30.33,NW,305,5.0,11.0,76,0.00,,OVC027,0.00,VWS V14.01,2013-03-01 17:20:00,
2013-03-01 11:24:00,32.3,25.3,30.33,NW,314,4.0,12.0,75,0.00,,OVC017,0.00,VWS V14.01,2013-03-01 17:24:00,
2013-03-01 11:25:00,32.3,25.3,30.33,NW,326,5.0,12.0,75,0.00,,OVC027,0.00,VWS V14.01,2013-03-01 17:25:00,
2013-03-01 11:29:00,32.4,25.7,30.33,NNW,334,3.0,12.0,76,0.00,,OVC017,0.00,VWS V14.01,2013-03-01 17:29:00,
2013-03-01 11:30:00,32.4,25.7,30.33,NW,322,10.0,12.0,76,0.00,,OVC027,0.00,VWS V14.01,2013-03-01 17:30:00,
2013-03-01 11:34:00,32.6,25.6,30.33,NNW,329,4.0,11.0,75,0.00,,OVC021,0.00,VWS V14.01,2013-03-01 17:34:00,
2013-03-01 11:35:00,32.6,25.6,30.33,NNW,329,3.0,11.0,75,0.00,,OVC027,0.00,VWS V14.01,2013-03-01 17:35:00,
2013-03-01 11:39:00,32.6,25.6,30.33,NNW,334,6.0,12.0,75,0.00,,OVC021,0.00,VWS V14.01,2013-03-01 17:39:00,
2013-03-01 11:40:00,32.6,25.6,30.33,North,352,7.0,12.0,75,0.00,,OVC027,0.00,VWS V14.01,2013-03-01 17:40:00,
2013-03-01 11:44:00,32.6,25.6,30.33,NNW,338,6.0,12.0,75,0.00,,OVC021,0.00,VWS V14.01,2013-03-01 17:44:00,
2013-03-01 11:45:00,32.6,25.6,30.33,NW,310,9.0,12.0,75,0.00,,OVC027,0.00,VWS V14.01,2013-03-01 17:45:00,
2013-03-01 11:49:00,32.7,26.0,30.33,NW,312,5.0,11.0,76,0.00,,OVC021,0.00,VWS V14.01,2013-03-01 17:49:00,
2013-03-01 11:50:00,33.8,26.4,30.32,WNW,283,8.0,13.0,74,0.00,,FEW085,0.00,VWS V14.01,2013-03-01 17:50:00,
2013-03-01 11:54:00,32.8,25.8,30.33,NNW,329,8.0,12.0,75,0.00,,OVC021,0.00,VWS V14.01,2013-03-01 17:54:00,
2013-03-01 11:55:00,32.9,25.9,30.33,North,359,8.0,12.0,75,0.00,,OVC027,0.00,VWS V14.01,2013-03-01 17:55:00,
2013-03-01 11:59:00,32.9,25.9,30.33,NW,305,6.0,13.0,75,0.00,,OVC021,0.00,VWS V14.01,2013-03-01 17:59:00,
2013-03-01 12:00:00,33.9,26.2,30.32,NW,319,5.0,11.0,73,0.00,,FEW085,0.00,VWS V14.01,2013-03-01 18:00:00,
2013-03-01 12:04:00,32.9,25.5,30.33,North,352,5.0,11.0,74,0.00,,OVC021,0.00,VWS V14.01,2013-03-01 18:04:00,
2013-03-01 12:05:00,34.2,26.5,30.32,NNW,342,3.0,11.0,73,0.00,,FEW085,0.00,VWS V14.01,2013-03-01 18:05:00,
2013-03-01 12:09:00,32.9,25.9,30.33,NW,316,6.0,9.0,75,0.00,,OVC021,0.00,VWS V14.01,2013-03-01 18:09:00,
2013-03-01 12:10:00,32.9,25.9,30.33,NNE,22,4.0,9.0,75,0.00,,OVC027,0.00,VWS V14.01,2013-03-01 18:10:00,
2013-03-01 12:14:00,33.1,26.0,30.33,North,352,6.0,10.0,75,0.00,,OVC021,0.00,VWS V14.01,2013-03-01 18:14:00,
2013-03-01 12:15:00,33.1,25.7,30.33,NW,312,8.0,10.0,74,0.00,,OVC027,0.00,VWS V14.01,2013-03-01 18:15:00,
2013-03-01 12:19:00,33.3,26.2,30.33,WNW,300,3.0,9.0,75,0.00,,OVC021,0.00,VWS V14.01,2013-03-01 18:19:00,
2013-03-01 12:20:00,33.3,26.2,30.33,NNE,16,6.0,9.0,75,0.00,,OVC027,0.00,VWS V14.01,2013-03-01 18:20:00,
2013-03-01 12:24:00,33.3,25.9,30.33,NNW,347,8.0,12.0,74,0.00,,OVC021,0.00,VWS V14.01,2013-03-01 18:24:00,
2013-03-01 12:25:00,33.9,26.5,30.32,NW,312,4.0,12.0,74,0.00,,FEW085,0.00,VWS V14.01,2013-03-01 18:25:00,
2013-03-01 12:29:00,33.4,26.3,30.33,WNW,288,7.0,11.0,75,0.00,,OVC021,0.00,VWS V14.01,2013-03-01 18:29:00,
2013-03-01 12:30:00,33.8,26.4,30.32,NNW,340,4.0,12.0,74,0.00,,FEW085,0.00,VWS V14.01,2013-03-01 18:30:00,
2013-03-01 12:34:00,33.6,26.2,30.32,NW,311,5.0,16.0,74,0.00,,OVC021,0.00,VWS V14.01,2013-03-01 18:34:00,
2013-03-01 12:35:00,34.0,26.6,30.32,NW,312,6.0,9.0,74,0.00,,FEW085,0.00,VWS V14.01,2013-03-01 18:35:00,
2013-03-01 12:39:00,33.5,26.1,30.32,North,357,11.0,12.0,74,0.00,,OVC021,0.00,VWS V14.01,2013-03-01 18:39:00,
2013-03-01 12:40:00,33.5,26.1,30.32,NW,307,4.0,12.0,74,0.00,,OVC027,0.00,VWS V14.01,2013-03-01 18:40:00,
2013-03-01 12:44:00,33.6,26.2,30.32,WNW,300,10.0,12.0,74,0.00,,OVC021,0.00,VWS V14.01,2013-03-01 18:44:00,
2013-03-01 12:45:00,33.7,26.3,30.32,NNW,330,7.0,12.0,74,0.00,,OVC027,0.00,VWS V14.01,2013-03-01 18:45:00,
2013-03-01 12:49:00,33.8,26.4,30.32,WNW,293,6.0,13.0,74,0.00,,OVC021,0.00,VWS V14.01,2013-03-01 18:49:00,
2013-03-01 12:50:00,33.8,26.4,30.32,WNW,283,8.0,13.0,74,0.00,,OVC027,0.00,VWS V14.01,2013-03-01 18:50:00,
2013-03-01 12:54:00,33.9,25.8,30.32,WNW,295,9.0,14.0,72,0.00,,OVC021,0.00,VWS V14.01,2013-03-01 18:54:00,
2013-03-01 12:55:00,34.1,26.0,30.32,North,352,4.0,14.0,72,0.00,,FEW085,0.00,VWS V14.01,2013-03-01 18:55:00,
2013-03-01 12:59:00,33.9,26.2,30.32,NNW,340,8.0,11.0,73,0.00,,OVC021,0.00,VWS V14.01,2013-03-01 18:59:00,
2013-03-01 13:00:00,34.2,26.1,30.32,NNW,327,8.0,15.0,72,0.00,,FEW085,0.00,VWS V14.01,2013-03-01 19:00:00,
2013-03-01 13:04:00,34.1,26.7,30.32,NW,309,5.0,11.0,74,0.00,,OVC021,0.00,VWS V14.01,2013-03-01 19:04:00,
2013-03-01 13:05:00,34.0,25.6,30.31,WNW,302,7.0,13.0,71,0.00,,FEW085,0.00,VWS V14.01,2013-03-01 19:05:00,
2013-03-01 13:09:00,34.2,26.5,30.32,NW,311,7.0,8.0,73,0.00,,OVC021,0.00,VWS V14.01,2013-03-01 19:09:00,
2013-03-01 13:10:00,34.2,26.5,30.32,NW,319,5.0,8.0,73,0.00,,OVC027,0.00,VWS V14.01,2013-03-01 19:10:00,
2013-03-01 13:14:00,34.2,26.1,30.32,North,350,3.0,11.0,72,0.00,,OVC021,0.00,VWS V14.01,2013-03-01 19:14:00,
2013-03-01 13:15:00,34.2,26.5,30.32,NNW,330,5.0,11.0,73,0.00,,OVC027,0.00,VWS V14.01,2013-03-01 19:15:00,
2013-03-01 13:19:00,33.9,26.2,30.32,NW,316,4.0,14.0,73,0.00,,OVC021,0.00,VWS V14.01,2013-03-01 19:19:00,
2013-03-01 13:20:00,33.8,25.8,30.32,West,274,9.0,15.0,72,0.00,,FEW085,0.00,VWS V14.01,2013-03-01 19:20:00,
2013-03-01 13:24:00,33.9,26.5,30.32,North,11,4.0,12.0,74,0.00,,OVC021,0.00,VWS V14.01,2013-03-01 19:24:00,
2013-03-01 13:25:00,33.9,26.5,30.32,NW,312,4.0,12.0,74,0.00,,OVC027,0.00,VWS V14.01,2013-03-01 19:25:00,
2013-03-01 13:29:00,33.8,26.4,30.32,NNW,333,6.0,12.0,74,0.00,,OVC021,0.00,VWS V14.01,2013-03-01 19:29:00,
2013-03-01 13:30:00,33.8,26.4,30.32,NNW,340,4.0,12.0,74,0.00,,OVC027,0.00,VWS V14.01,2013-03-01 19:30:00,
2013-03-01 13:34:00,34.0,26.6,30.32,WNW,293,5.0,9.0,74,0.00,,OVC023,0.00,VWS V14.01,2013-03-01 19:34:00,
2013-03-01 13:35:00,34.0,26.6,30.32,NW,312,6.0,9.0,74,0.00,,OVC027,0.00,VWS V14.01,2013-03-01 19:35:00,
2013-03-01 13:39:00,34.0,26.6,30.31,NNW,338,5.0,13.0,74,0.00,,OVC023,0.00,VWS V14.01,2013-03-01 19:39:00,
2013-03-01 13:40:00,34.1,26.7,30.31,WNW,303,6.0,13.0,74,0.00,,OVC027,0.00,VWS V14.01,2013-03-01 19:40:00,
2013-03-01 13:44:00,34.3,26.2,30.31,NW,307,4.0,12.0,72,0.00,,OVC023,0.00,VWS V14.01,2013-03-01 19:44:00,
2013-03-01 13:45:00,34.3,26.2,30.31,NNW,345,6.0,12.0,72,0.00,,OVC027,0.00,VWS V14.01,2013-03-01 19:45:00,
2013-03-01 13:49:00,34.2,25.8,30.32,NW,315,9.0,16.0,71,0.00,,OVC023,0.00,VWS V14.01,2013-03-01 19:49:00,
2013-03-01 13:50:00,34.2,25.1,30.31,WNW,293,5.0,14.0,69,0.00,,FEW085,0.00,VWS V14.01,2013-03-01 19:50:00,
2013-03-01 13:54:00,34.1,26.0,30.32,North,9,7.0,14.0,72,0.00,,OVC023,0.00,VWS V14.01,2013-03-01 19:54:00,
2013-03-01 13:55:00,34.1,26.0,30.32,North,352,4.0,14.0,72,0.00,,OVC027,0.00,VWS V14.01,2013-03-01 19:55:00,
2013-03-01 13:59:00,34.2,26.1,30.32,North,352,10.0,13.0,72,0.00,,OVC023,0.00,VWS V14.01,2013-03-01 19:59:00,
2013-03-01 14:00:00,34.2,26.1,30.32,NNW,327,8.0,15.0,72,0.00,,OVC027,0.00,VWS V14.01,2013-03-01 20:00:00,
2013-03-01 14:04:00,34.0,25.6,30.31,NW,326,5.0,13.0,71,0.00,,OVC023,0.00,VWS V14.01,2013-03-01 20:04:00,
2013-03-01 14:05:00,34.0,25.6,30.31,WNW,302,7.0,13.0,71,0.00,,OVC027,0.00,VWS V14.01,2013-03-01 20:05:00,
2013-03-01 14:09:00,34.0,25.9,30.31,NNE,13,10.0,13.0,72,0.00,,OVC023,0.00,VWS V14.01,2013-03-01 20:09:00,
2013-03-01 14:10:00,33.9,25.8,30.31,North,351,3.0,13.0,72,0.00,,OVC027,0.00,VWS V14.01,2013-03-01 20:10:00,
2013-03-01 14:14:00,33.9,25.8,30.31,WNW,293,12.0,14.0,72,0.00,,OVC023,0.00,VWS V14.01,2013-03-01 20:14:00,
2013-03-01 14:15:00,33.9,25.8,30.31,NNW,328,11.0,14.0,72,0.00,,OVC027,0.00,VWS V14.01,2013-03-01 20:15:00,
2013-03-01 14:19:00,33.8,25.7,30.32,North,354,8.0,15.0,72,0.00,,OVC023,0.00,VWS V14.01,2013-03-01 20:19:00,
2013-03-01 14:20:00,33.8,25.8,30.32,West,274,9.0,15.0,72,0.00,,OVC027,0.00,VWS V14.01,2013-03-01 20:20:00,
2013-03-01 14:24:00,33.8,26.1,30.31,NNW,328,7.0,15.0,73,0.00,,OVC023,0.00,VWS V14.01,2013-03-01 20:24:00,
2013-03-01 14:25:00,33.8,25.8,30.31,NW,324,11.0,15.0,72,0.00,,OVC027,0.00,VWS V14.01,2013-03-01 20:25:00,
2013-03-01 14:29:00,33.8,25.7,30.31,NW,307,9.0,15.0,72,0.00,,OVC023,0.00,VWS V14.01,2013-03-01 20:29:00,
2013-03-01 14:30:00,33.8,25.8,30.31,NNW,348,11.0,15.0,72,0.00,,OVC027,0.00,VWS V14.01,2013-03-01 20:30:00,
2013-03-01 14:34:00,34.1,26.0,30.31,NNE,25,4.0,12.0,72,0.00,,OVC027,0.00,VWS V14.01,2013-03-01 20:34:00,
2013-03-01 14:35:00,34.2,26.1,30.31,NW,312,8.0,12.0,72,0.00,,OVC027,0.00,VWS V14.01,2013-03-01 20:35:00,
2013-03-01 14:39:00,34.2,25.5,30.31,WNW,302,7.0,15.0,70,0.00,,OVC027,0.00,VWS V14.01,2013-03-01 20:39:00,
2013-03-01 14:40:00,34.2,25.5,30.31,NNW,331,11.0,15.0,70,0.00,,OVC027,0.00,VWS V14.01,2013-03-01 20:40:00,
2013-03-01 14:44:00,34.2,25.5,30.31,NNW,329,6.0,14.0,70,0.00,,OVC027,0.00,VWS V14.01,2013-03-01 20:44:00,
2013-03-01 14:45:00,34.2,25.5,30.31,NNW,331,4.0,15.0,70,0.00,,OVC027,0.00,VWS V14.01,2013-03-01 20:45:00,
2013-03-01 14:49:00,34.3,25.5,30.31,WNW,295,10.0,14.0,70,0.00,,OVC027,0.00,VWS V14.01,2013-03-01 20:49:00,
2013-03-01 14:50:00,34.2,25.1,30.31,WNW,293,5.0,14.0,69,0.00,,OVC027,0.00,VWS V14.01,2013-03-01 20:50:00,
2013-03-01 14:54:00,34.2,25.5,30.31,NW,307,8.0,13.0,70,0.00,,OVC027,0.00,VWS V14.01,2013-03-01 20:54:00,
2013-03-01 14:55:00,34.2,25.5,30.31,West,279,6.0,13.0,70,0.00,,OVC027,0.00,VWS V14.01,2013-03-01 20:55:00,
2013-03-01 14:59:00,34.2,25.1,30.31,NW,305,13.0,15.0,69,0.00,,OVC027,0.00,VWS V14.01,2013-03-01 20:59:00,
2013-03-01 15:00:00,34.0,24.9,30.31,NW,305,5.0,17.0,69,0.00,,OVC027,0.00,VWS V14.01,2013-03-01 21:00:00,
2013-03-01 15:04:00,34.0,24.9,30.31,NW,322,5.0,15.0,69,0.00,,OVC027,0.00,VWS V14.01,2013-03-01 21:04:00,
2013-03-01 15:05:00,34.0,25.3,30.31,NW,305,7.0,15.0,70,0.00,,OVC027,0.00,VWS V14.01,2013-03-01 21:05:00,
2013-03-01 15:09:00,34.1,25.4,30.31,NW,305,8.0,10.0,70,0.00,,OVC027,0.00,VWS V14.01,2013-03-01 21:09:00,
2013-03-01 15:10:00,34.2,25.1,30.31,NNW,328,9.0,10.0,69,0.00,,OVC027,0.00,VWS V14.01,2013-03-01 21:10:00,
2013-03-01 15:14:00,34.3,24.9,30.31,North,6,10.0,16.0,68,0.00,,OVC027,0.00,VWS V14.01,2013-03-01 21:14:00,
2013-03-01 15:15:00,33.8,24.4,30.31,North,358,7.0,13.0,68,0.00,,FEW085,0.00,VWS V14.01,2013-03-01 21:15:00,
2013-03-01 15:19:00,34.3,24.5,30.31,NW,311,8.0,13.0,67,0.00,,OVC027,0.00,VWS V14.01,2013-03-01 21:19:00,
2013-03-01 15:20:00,34.0,24.9,30.31,NW,316,13.0,13.0,69,0.00,,FEW085,0.00,VWS V14.01,2013-03-01 21:20:00,
2013-03-01 15:23:00,34.6,24.1,30.31,NW,312,10.0,16.0,65,0.00,,OVC027,0.00,VWS V14.01,2013-03-01 21:23:00,
2013-03-01 15:25:00,34.0,24.6,30.31,North,8,5.0,13.0,68,0.00,,FEW085,0.00,VWS V14.01,2013-03-01 21:25:00,
2013-03-01 15:28:00,34.7,24.9,30.31,WNW,298,7.0,12.0,67,0.00,,OVC027,0.00,VWS V14.01,2013-03-01 21:28:00,
2013-03-01 15:30:00,34.0,24.2,30.31,NNW,330,5.0,11.0,67,0.00,,FEW085,0.00,VWS V14.01,2013-03-01 21:30:00,
2013-03-01 15:33:00,34.7,24.5,30.31,NW,309,5.0,14.0,66,0.00,,OVC033,0.00,VWS V14.01,2013-03-01 21:33:00,
2013-03-01 15:35:00,33.9,24.5,30.32,NW,315,4.0,12.0,68,0.00,,FEW085,0.00,VWS V14.01,2013-03-01 21:35:00,
2013-03-01 15:38:00,34.5,24.3,30.31,WNW,302,8.0,15.0,66,0.00,,OVC033,0.00,VWS V14.01,2013-03-01 21:38:00,
2013-03-01 15:40:00,33.8,24.0,30.32,NNE,16,9.0,14.0,67,0.00,,FEW085,0.00,VWS V14.01,2013-03-01 21:40:00,
2013-03-01 15:43:00,34.4,23.9,30.31,NW,318,9.0,16.0,65,0.00,,OVC033,0.00,VWS V14.01,2013-03-01 21:43:00,
2013-03-01 15:45:00,33.6,23.8,30.32,North,8,5.0,13.0,67,0.00,,FEW085,0.00,VWS V14.01,2013-03-01 21:45:00,
2013-03-01 15:48:00,34.3,24.5,30.31,North,352,11.0,13.0,67,0.00,,OVC033,0.00,VWS V14.01,2013-03-01 21:48:00,
2013-03-01 15:50:00,33.5,23.7,30.32,NNW,340,9.0,15.0,67,0.00,,FEW085,0.00,VWS V14.01,2013-03-01 21:50:00,
2013-03-01 15:53:00,34.2,24.8,30.31,NNE,13,5.0,15.0,68,0.00,,OVC033,0.00,VWS V14.01,2013-03-01 21:53:00,
2013-03-01 15:55:00,33.5,24.1,30.32,NNW,335,7.0,12.0,68,0.00,,FEW085,0.00,VWS V14.01,2013-03-01 21:55:00,
2013-03-01 15:58:00,34.1,24.7,30.31,NE,38,10.0,15.0,68,0.00,,OVC033,0.00,VWS V14.01,2013-03-01 21:58:00,
2013-03-01 16:00:00,33.4,24.0,30.32,NNW,333,11.0,14.0,68,0.00,,FEW085,0.00,VWS V14.01,2013-03-01 22:00:00,
2013-03-01 16:03:00,34.0,24.6,30.31,NW,311,6.0,13.0,68,0.00,,OVC033,0.00,VWS V14.01,2013-03-01 22:03:00,
2013-03-01 16:05:00,33.2,24.1,30.32,NW,312,7.0,13.0,69,0.00,,FEW085,0.00,VWS V14.01,2013-03-01 22:05:00,
2013-03-01 16:08:00,33.9,24.5,30.31,NW,316,10.0,13.0,68,0.00,,OVC033,0.00,VWS V14.01,2013-03-01 22:08:00,
2013-03-01 16:10:00,33.0,24.0,30.32,NW,322,8.0,15.0,69,0.00,,FEW085,0.00,VWS V14.01,2013-03-01 22:10:00,
2013-03-01 16:13:00,33.8,24.4,30.31,NNW,333,4.0,13.0,68,0.00,,OVC033,0.00,VWS V14.01,2013-03-01 22:13:00,
2013-03-01 16:15:00,32.9,24.2,30.32,NNW,340,8.0,15.0,70,0.00,,FEW085,0.00,VWS V14.01,2013-03-01 22:15:00,
2013-03-01 16:18:00,34.0,24.9,30.31,NW,307,4.0,8.0,69,0.00,,OVC033,0.00,VWS V14.01,2013-03-01 22:18:00,
2013-03-01 16:20:00,32.7,23.7,30.32,NNW,342,7.0,12.0,69,0.00,,FEW085,0.00,VWS V14.01,2013-03-01 22:20:00,
2013-03-01 16:23:00,34.0,24.6,30.31,NNW,333,8.0,13.0,68,0.00,,OVC033,0.00,VWS V14.01,2013-03-01 22:23:00,
2013-03-01 16:25:00,32.5,23.8,30.32,NNW,331,12.0,15.0,70,0.00,,FEW085,0.00,VWS V14.01,2013-03-01 22:25:00,
2013-03-01 16:28:00,34.1,24.3,30.32,WNW,298,9.0,11.0,67,0.00,,OVC033,0.00,VWS V14.01,2013-03-01 22:28:00,
2013-03-01 16:30:00,32.3,23.3,30.33,NNW,338,6.0,14.0,69,0.00,,FEW085,0.00,VWS V14.01,2013-03-01 22:30:00,
2013-03-01 16:33:00,33.9,24.1,30.32,NNW,335,4.0,12.0,67,0.00,,OVC030,0.00,VWS V14.01,2013-03-01 22:33:00,
2013-03-01 16:35:00,32.3,23.3,30.33,NNW,338,6.0,11.0,69,0.00,,FEW085,0.00,VWS V14.01,2013-03-01 22:35:00,
2013-03-01 16:38:00,33.8,24.0,30.32,West,276,3.0,14.0,67,0.00,,OVC030,0.00,VWS V14.01,2013-03-01 22:38:00,
2013-03-01 16:40:00,32.3,22.6,30.32,NNW,342,8.0,13.0,67,0.00,,FEW085,0.00,VWS V14.01,2013-03-01 22:40:00,
2013-03-01 16:43:00,33.6,23.8,30.32,NNW,343,9.0,13.0,67,0.00,,OVC030,0.00,VWS V14.01,2013-03-01 22:43:00,
2013-03-01 16:45:00,32.3,22.6,30.33,NW,307,5.0,13.0,67,0.00,,FEW085,0.00,VWS V14.01,2013-03-01 22:45:00,
2013-03-01 16:48:00,33.5,23.7,30.32,NW,307,8.0,15.0,67,0.00,,OVC030,0.00,VWS V14.01,2013-03-01 22:48:00,
2013-03-01 16:50:00,32.3,22.6,30.33,North,8,9.0,14.0,67,0.00,,FEW085,0.00,VWS V14.01,2013-03-01 22:50:00,
2013-03-01 16:53:00,33.5,24.1,30.32,North,356,9.0,12.0,68,0.00,,OVC030,0.00,VWS V14.01,2013-03-01 22:53:00,
2013-03-01 16:55:00,32.1,22.4,30.33,NNE,26,5.0,13.0,67,0.00,,FEW085,0.00,VWS V14.01,2013-03-01 22:55:00,
2013-03-01 16:58:00,33.4,24.0,30.32,NNW,345,7.0,14.0,68,0.00,,OVC030,0.00,VWS V14.01,2013-03-01 22:58:00,
2013-03-01 17:00:00,31.9,22.5,30.33,NNW,343,8.0,11.0,68,0.00,,FEW085,0.00,VWS V14.01,2013-03-01 23:00:00,
2013-03-01 17:03:00,33.2,24.1,30.32,NNW,336,7.0,13.0,69,0.00,,OVC030,0.00,VWS V14.01,2013-03-01 23:03:00,
2013-03-01 17:05:00,31.7,22.4,30.33,NW,315,4.0,13.0,68,0.00,,FEW085,0.00,VWS V14.01,2013-03-01 23:05:00,
2013-03-01 17:08:00,33.0,24.0,30.32,NNW,341,9.0,15.0,69,0.00,,OVC030,0.00,VWS V14.01,2013-03-01 23:08:00,
2013-03-01 17:10:00,31.5,22.5,30.33,NW,317,6.0,12.0,69,0.00,,FEW085,0.00,VWS V14.01,2013-03-01 23:10:00,
2013-03-01 17:13:00,32.9,24.2,30.32,North,352,4.0,15.0,70,0.00,,OVC030,0.00,VWS V14.01,2013-03-01 23:13:00,
2013-03-01 17:15:00,31.4,22.4,30.34,NW,314,8.0,12.0,69,0.00,,FEW085,0.00,VWS V14.01,2013-03-01 23:15:00,
2013-03-01 17:18:00,32.8,23.8,30.32,North,6,7.0,12.0,69,0.00,,OVC030,0.00,VWS V14.01,2013-03-01 23:18:00,
2013-03-01 17:20:00,31.2,22.6,30.34,North,4,2.0,11.0,70,0.00,,FEW085,0.00,VWS V14.01,2013-03-01 23:20:00,
2013-03-01 17:23:00,32.6,23.9,30.32,NNW,343,3.0,15.0,70,0.00,,OVC030,0.00,VWS V14.01,2013-03-01 23:23:00,
2013-03-01 17:25:00,31.2,22.9,30.35,NW,314,6.0,10.0,71,0.00,,FEW085,0.00,VWS V14.01,2013-03-01 23:25:00,
2013-03-01 17:28:00,32.4,23.4,30.32,NW,309,11.0,14.0,69,0.00,,OVC030,0.00,VWS V14.01,2013-03-01 23:28:00,
2013-03-01 17:30:00,31.1,23.1,30.35,NNW,345,5.0,9.0,72,0.00,,FEW085,0.00,VWS V14.01,2013-03-01 23:30:00,
2013-03-01 17:33:00,32.3,23.6,30.33,NNW,340,7.0,11.0,70,0.00,,BKN034,0.00,VWS V14.01,2013-03-01 23:33:00,
2013-03-01 17:35:00,31.0,23.0,30.35,NNE,28,2.0,11.0,72,0.00,,FEW085,0.00,VWS V14.01,2013-03-01 23:35:00,
2013-03-01 17:38:00,32.3,22.9,30.32,NNW,331,10.0,12.0,68,0.00,,BKN034,0.00,VWS V14.01,2013-03-01 23:38:00,
2013-03-01 17:40:00,30.9,23.0,30.35,NNW,346,4.0,9.0,72,0.00,,FEW085,0.00,VWS V14.01,2013-03-01 23:40:00,
2013-03-01 17:43:00,32.3,22.6,30.33,NNW,347,4.0,13.0,67,0.00,,BKN034,0.00,VWS V14.01,2013-03-01 23:43:00,
2013-03-01 17:45:00,30.9,23.3,30.35,North,359,2.0,8.0,73,0.00,,FEW085,0.00,VWS V14.01,2013-03-01 23:45:00,
2013-03-01 17:48:00,32.3,22.2,30.33,NNE,15,4.0,14.0,66,0.00,,BKN034,0.00,VWS V14.01,2013-03-01 23:48:00,
2013-03-01 17:50:00,30.8,22.9,30.36,NNE,20,5.0,9.0,72,0.00,,FEW085,0.00,VWS V14.01,2013-03-01 23:50:00,
2013-03-01 17:53:00,32.1,22.4,30.33,North,358,8.0,13.0,67,0.00,,BKN034,0.00,VWS V14.01,2013-03-01 23:53:00,
2013-03-01 17:55:00,30.7,22.8,30.36,NNE,15,3.0,9.0,72,0.00,,FEW085,0.00,VWS V14.01,2013-03-01 23:55:00,
2013-03-01 17:58:00,32.0,22.6,30.33,WNW,290,3.0,9.0,68,0.00,,BKN034,0.00,VWS V14.01,2013-03-01 23:58:00,
2013-03-01 18:00:00,30.5,22.9,30.36,NE,48,4.0,10.0,73,0.00,,FEW085,0.00,VWS V14.01,2013-03-02 00:00:00,
2013-03-01 18:03:00,31.7,22.4,30.33,NNW,345,10.0,13.0,68,0.00,,BKN034,0.00,VWS V14.01,2013-03-02 00:03:00,
2013-03-01 18:05:00,30.3,22.7,30.36,North,351,4.0,10.0,73,0.00,,FEW085,0.00,VWS V14.01,2013-03-02 00:05:00,
2013-03-01 18:08:00,31.6,22.6,30.33,NW,311,12.0,12.0,69,0.00,,BKN034,0.00,VWS V14.01,2013-03-02 00:08:00,
2013-03-01 18:10:00,30.1,22.8,30.36,North,354,3.0,7.0,74,0.00,,FEW085,0.00,VWS V14.01,2013-03-02 00:10:00,
2013-03-01 18:13:00,31.4,22.4,30.34,NW,318,6.0,12.0,69,0.00,,BKN034,0.00,VWS V14.01,2013-03-02 00:13:00,
2013-03-01 18:15:00,29.9,22.6,30.36,NNE,18,5.0,7.0,74,0.00,,FEW085,0.00,VWS V14.01,2013-03-02 00:15:00,
2013-03-01 18:18:00,31.3,22.7,30.34,NNW,338,3.0,11.0,70,0.00,,BKN034,0.00,VWS V14.01,2013-03-02 00:18:00,
2013-03-01 18:20:00,29.7,22.8,30.36,North,8,4.0,6.0,75,0.00,,FEW085,0.00,VWS V14.01,2013-03-02 00:20:00,
2013-03-01 18:23:00,31.2,22.9,30.34,NW,318,2.0,10.0,71,0.00,,BKN034,0.00,VWS V14.01,2013-03-02 00:23:00,
2013-03-01 18:25:00,29.5,22.6,30.37,NNE,22,6.0,7.0,75,0.00,,FEW085,0.00,VWS V14.01,2013-03-02 00:25:00,
2013-03-01 18:28:00,31.1,23.1,30.35,NNE,15,4.0,9.0,72,0.00,,BKN034,0.00,VWS V14.01,2013-03-02 00:28:00,
2013-03-01 18:30:00,29.5,22.6,30.37,NNE,22,2.0,6.0,75,0.00,,FEW085,0.00,VWS V14.01,2013-03-02 00:30:00,
2013-03-01 18:33:00,31.0,23.0,30.35,NNE,22,4.0,10.0,72,0.00,,BKN034,0.00,VWS V14.01,2013-03-02 00:33:00,
2013-03-01 18:35:00,29.3,22.7,30.36,North,1,2.0,6.0,76,0.00,,FEW085,0.00,VWS V14.01,2013-03-02 00:35:00,
2013-03-01 18:38:00,30.9,23.0,30.35,NNE,12,3.0,7.0,72,0.00,,BKN034,0.00,VWS V14.01,2013-03-02 00:38:00,
2013-03-01 18:40:00,29.3,22.4,30.37,North,11,1.0,7.0,75,0.00,,FEW085,0.00,VWS V14.01,2013-03-02 00:40:00,
2013-03-01 18:43:00,30.9,23.0,30.35,North,353,3.0,8.0,72,0.00,,BKN034,0.00,VWS V14.01,2013-03-02 00:43:00,
2013-03-01 18:45:00,29.1,22.5,30.37,NNE,16,3.0,6.0,76,0.00,,FEW085,0.00,VWS V14.01,2013-03-02 00:45:00,
2013-03-01 18:48:00,30.8,23.2,30.35,North,1,3.0,9.0,73,0.00,,BKN034,0.00,VWS V14.01,2013-03-02 00:48:00,
2013-03-01 18:50:00,29.0,22.4,30.37,NNE,18,3.0,6.0,76,0.00,,FEW085,0.00,VWS V14.01,2013-03-02 00:50:00,
2013-03-01 18:53:00,30.7,22.8,30.36,NNW,345,8.0,9.0,72,0.00,,BKN034,0.00,VWS V14.01,2013-03-02 00:53:00,
2013-03-01 18:55:00,28.9,22.3,30.37,NNE,19,7.0,8.0,76,0.00,,FEW085,0.00,VWS V14.01,2013-03-02 00:55:00,
2013-03-01 18:58:00,30.5,22.9,30.36,NNE,32,2.0,10.0,73,0.00,,BKN034,0.00,VWS V14.01,2013-03-02 00:58:00,
2013-03-01 19:00:00,28.9,22.0,30.37,NE,50,2.0,7.0,75,0.00,,FEW085,0.00,VWS V14.01,2013-03-02 01:00:00,
2013-03-01 19:03:00,30.3,22.7,30.36,NNW,335,3.0,10.0,73,0.00,,BKN034,0.00,VWS V14.01,2013-03-02 01:03:00,
2013-03-01 19:05:00,28.8,21.9,30.37,NNW,340,1.0,6.0,75,0.00,,FEW085,0.00,VWS V14.01,2013-03-02 01:05:00,
2013-03-01 19:08:00,30.1,22.8,30.36,NNE,13,2.0,7.0,74,0.00,,BKN034,0.00,VWS V14.01,2013-03-02 01:08:00,
2013-03-01 19:10:00,28.7,21.8,30.37,NNE,25,2.0,5.0,75,0.00,,FEW085,0.00,VWS V14.01,2013-03-02 01:10:00,
2013-03-01 19:13:00,29.9,22.6,30.36,NNE,32,3.0,5.0,74,0.00,,BKN034,0.00,VWS V14.01,2013-03-02 01:13:00,
2013-03-01 19:15:00,28.5,21.6,30.37,NE,35,1.0,4.0,75,0.00,,FEW085,0.00,VWS V14.01,2013-03-02 01:15:00,
2013-03-01 19:18:00,29.7,22.4,30.36,NNE,31,6.0,6.0,74,0.00,,BKN034,0.00,VWS V14.01,2013-03-02 01:18:00,
2013-03-01 19:20:00,28.3,21.7,30.37,North,8,2.0,3.0,76,0.00,,FEW085,0.00,VWS V14.01,2013-03-02 01:20:00,
2013-03-01 19:23:00,29.6,22.7,30.36,NNE,30,3.0,6.0,75,0.00,,BKN034,0.00,VWS V14.01,2013-03-02 01:23:00,
2013-03-01 19:25:00,28.1,21.5,30.37,North,6,4.0,4.0,76,0.00,,FEW085,0.00,VWS V14.01,2013-03-02 01:25:00,
2013-03-01 19:28:00,29.5,22.6,30.37,North,1,3.0,6.0,75,0.00,,BKN034,0.00,VWS V14.01,2013-03-02 01:28:00,
2013-03-01 19:30:00,27.9,21.3,30.37,NNE,16,2.0,4.0,76,0.00,,FEW085,0.00,VWS V14.01,2013-03-02 01:30:00,
2013-03-01 19:33:00,29.4,22.8,30.36,NNE,13,2.0,6.0,76,0.00,,BKN034,0.00,VWS V14.01,2013-03-02 01:33:00,
2013-03-01 19:35:00,27.7,21.1,30.37,NE,41,2.0,4.0,76,0.00,,FEW085,0.00,VWS V14.01,2013-03-02 01:35:00,
2013-03-01 19:38:00,29.3,22.4,30.37,NNE,23,4.0,7.0,75,0.00,,BKN034,0.00,VWS V14.01,2013-03-02 01:38:00,
2013-03-01 19:40:00,27.5,20.9,30.37,North,3,1.0,3.0,76,0.00,,FEW085,0.00,VWS V14.01,2013-03-02 01:40:00,
2013-03-01 19:43:00,29.2,22.6,30.37,NE,35,2.0,6.0,76,0.00,,BKN034,0.00,VWS V14.01,2013-03-02 01:43:00,
2013-03-01 19:45:00,27.3,21.1,30.37,North,357,1.0,2.0,77,0.00,,FEW085,0.00,VWS V14.01,2013-03-02 01:45:00,
2013-03-01 19:48:00,29.0,22.4,30.37,NNW,335,4.0,6.0,76,0.00,,BKN034,0.00,VWS V14.01,2013-03-02 01:48:00,
2013-03-01 19:50:00,27.1,20.9,30.38,North,350,1.0,3.0,77,0.00,,FEW085,0.00,VWS V14.01,2013-03-02 01:50:00,
2013-03-01 19:53:00,28.9,22.3,30.37,NE,47,5.0,6.0,76,0.00,,BKN034,0.00,VWS V14.01,2013-03-02 01:53:00,
2013-03-01 19:55:00,27.0,21.1,30.38,NNW,328,0.0,3.0,78,0.00,,FEW085,0.00,VWS V14.01,2013-03-02 01:55:00,
2013-03-01 19:58:00,28.9,22.0,30.37,NNE,13,4.0,7.0,75,0.00,,BKN034,0.00,VWS V14.01,2013-03-02 01:58:00,
2013-03-01 20:00:00,26.8,20.9,30.38,NNW,329,1.0,2.0,78,0.00,,FEW085,0.00,VWS V14.01,2013-03-02 02:00:00,
2013-03-01 20:03:00,28.8,21.9,30.37,NE,35,3.0,6.0,75,0.00,,BKN034,0.00,VWS V14.01,2013-03-02 02:03:00,
2013-03-01 20:05:00,26.6,20.7,30.38,NNW,335,1.0,2.0,78,0.00,,FEW085,0.00,VWS V14.01,2013-03-02 02:05:00,
2013-03-01 20:08:00,28.7,21.8,30.37,NNE,30,5.0,5.0,75,0.00,,BKN034,0.00,VWS V14.01,2013-03-02 02:08:00,
2013-03-01 20:10:00,26.4,20.8,30.38,NW,324,1.0,2.0,79,0.00,,FEW085,0.00,VWS V14.01,2013-03-02 02:10:00,
2013-03-01 20:13:00,28.6,21.7,30.37,North,355,1.0,4.0,75,0.00,,BKN034,0.00,VWS V14.01,2013-03-02 02:13:00,
2013-03-01 20:15:00,26.4,20.5,30.38,NW,310,1.0,2.0,78,0.00,,FEW085,0.00,VWS V14.01,2013-03-02 02:15:00,
2013-03-01 20:18:00,28.4,21.8,30.37,NNE,23,3.0,3.0,76,0.00,,BKN034,0.00,VWS V14.01,2013-03-02 02:18:00,
2013-03-01 20:20:00,26.3,20.7,30.38,NW,324,1.0,2.0,79,0.00,,FEW085,0.00,VWS V14.01,2013-03-02 02:20:00,
2013-03-01 20:23:00,28.1,21.5,30.37,NNE,30,2.0,3.0,76,0.00,,BKN034,0.00,VWS V14.01,2013-03-02 02:23:00,
2013-03-01 20:25:00,26.3,21.6,30.38,NW,326,0.0,2.0,82,0.00,,FEW085,0.00,VWS V14.01,2013-03-02 02:25:00,
2013-03-01 20:28:00,28.0,21.4,30.37,NNE,28,1.0,4.0,76,0.00,,BKN034,0.00,VWS V14.01,2013-03-02 02:28:00,
2013-03-01 20:30:00,25.9,20.9,30.38,NW,326,1.0,1.0,81,0.00,,FEW085,0.00,VWS V14.01,2013-03-02 02:30:00,
2013-03-01 20:33:00,27.8,21.2,30.37,North,353,1.0,4.0,76,0.00,,BKN032,0.00,VWS V14.01,2013-03-02 02:33:00,
2013-03-01 20:35:00,25.8,20.8,30.39,NW,326,1.0,1.0,81,0.00,,FEW085,0.00,VWS V14.01,2013-03-02 02:35:00,
2013-03-01 20:38:00,27.6,21.0,30.37,North,354,1.0,3.0,76,0.00,,BKN032,0.00,VWS V14.01,2013-03-02 02:38:00,
2013-03-01 20:40:00,25.6,20.6,30.38,NW,326,0.0,2.0,81,0.00,,FEW085,0.00,VWS V14.01,2013-03-02 02:40:00,
2013-03-01 20:43:00,27.4,21.1,30.37,North,3,1.0,1.0,77,0.00,,BKN032,0.00,VWS V14.01,2013-03-02 02:43:00,
2013-03-01 20:45:00,25.5,20.5,30.39,NW,326,1.0,1.0,81,0.00,,FEW085,0.00,VWS V14.01,2013-03-02 02:45:00,
2013-03-01 20:48:00,27.2,21.0,30.38,NW,324,1.0,3.0,77,0.00,,BKN032,0.00,VWS V14.01,2013-03-02 02:48:00,
2013-03-01 20:50:00,25.2,20.2,30.39,NW,326,1.0,1.0,81,0.00,,FEW085,0.00,VWS V14.01,2013-03-02 02:50:00,
2013-03-01 20:53:00,27.0,21.1,30.38,NNW,328,2.0,3.0,78,0.00,,BKN032,0.00,VWS V14.01,2013-03-02 02:53:00,
2013-03-01 20:55:00,25.2,20.8,30.39,NW,324,1.0,2.0,83,0.00,,FEW085,0.00,VWS V14.01,2013-03-02 02:55:00,
2013-03-01 20:58:00,26.9,21.0,30.38,NNW,329,1.0,2.0,78,0.00,,BKN032,0.00,VWS V14.01,2013-03-02 02:58:00,
2013-03-01 21:00:00,25.3,21.1,30.39,NW,315,1.0,2.0,84,0.00,,FEW085,0.00,VWS V14.01,2013-03-02 03:00:00,
2013-03-01 21:03:00,26.6,20.7,30.38,NNW,331,1.0,2.0,78,0.00,,BKN032,0.00,VWS V14.01,2013-03-02 03:03:00,
2013-03-01 21:05:00,25.1,20.7,30.39,NW,315,1.0,1.0,83,0.00,,FEW085,0.00,VWS V14.01,2013-03-02 03:05:00,
2013-03-01 21:08:00,26.5,20.9,30.38,NNE,19,1.0,2.0,79,0.00,,BKN032,0.00,VWS V14.01,2013-03-02 03:08:00,
2013-03-01 21:10:00,24.9,20.2,30.40,NW,315,1.0,1.0,82,0.00,,FEW085,0.00,VWS V14.01,2013-03-02 03:10:00,
2013-03-01 21:13:00,26.4,20.5,30.38,NW,309,1.0,2.0,78,0.00,,BKN032,0.00,VWS V14.01,2013-03-02 03:13:00,
2013-03-01 21:15:00,24.7,20.3,30.39,NW,315,1.0,1.0,83,0.00,,FEW085,0.00,VWS V14.01,2013-03-02 03:15:00,
2013-03-01 21:18:00,26.3,20.4,30.38,NNW,330,1.0,2.0,78,0.00,,BKN032,0.00,VWS V14.01,2013-03-02 03:18:00,
2013-03-01 21:20:00,24.5,20.1,30.39,West,260,1.0,2.0,83,0.00,,FEW085,0.00,VWS V14.01,2013-03-02 03:20:00,
2013-03-01 21:23:00,26.3,21.3,30.38,NW,326,0.0,2.0,81,0.00,,BKN032,0.00,VWS V14.01,2013-03-02 03:23:00,
2013-03-01 21:25:00,24.4,20.3,30.39,West,260,1.0,1.0,84,0.00,,FEW085,0.00,VWS V14.01,2013-03-02 03:25:00,
2013-03-01 21:28:00,26.1,21.1,30.38,NW,326,0.0,1.0,81,0.00,,BKN032,0.00,VWS V14.01,2013-03-02 03:28:00,
2013-03-01 21:30:00,24.2,20.1,30.39,West,270,1.0,2.0,84,0.00,,FEW085,0.00,VWS V14.01,2013-03-02 03:30:00,
2013-03-01 21:33:00,25.8,20.8,30.38,NW,326,1.0,1.0,81,0.00,,SCT032,0.00,VWS V14.01,2013-03-02 03:33:00,
2013-03-01 21:35:00,24.0,19.9,30.40,WSW,252,1.0,2.0,84,0.00,,FEW085,0.00,VWS V14.01,2013-03-02 03:35:00,
2013-03-01 21:38:00,25.7,20.7,30.39,NW,326,1.0,2.0,81,0.00,,SCT032,0.00,VWS V14.01,2013-03-02 03:38:00,
2013-03-01 21:40:00,24.0,20.1,30.40,West,271,0.0,2.0,85,0.00,,FEW085,0.00,VWS V14.01,2013-03-02 03:40:00,
2013-03-01 21:43:00,25.5,20.5,30.39,NW,326,1.0,1.0,81,0.00,,SCT032,0.00,VWS V14.01,2013-03-02 03:43:00,
2013-03-01 21:45:00,23.8,20.0,30.40,West,271,1.0,1.0,85,0.00,,FEW085,0.00,VWS V14.01,2013-03-02 03:45:00,
2013-03-01 21:48:00,25.3,20.3,30.39,NW,326,1.0,1.0,81,0.00,,SCT032,0.00,VWS V14.01,2013-03-02 03:48:00,
2013-03-01 21:50:00,23.7,19.6,30.40,West,271,1.0,3.0,84,0.00,,FEW085,0.00,VWS V14.01,2013-03-02 03:50:00,
2013-03-01 21:53:00,25.2,20.5,30.39,NW,324,1.0,1.0,82,0.00,,SCT032,0.00,VWS V14.01,2013-03-02 03:53:00,
2013-03-01 21:55:00,23.5,19.4,30.40,West,270,0.0,3.0,84,0.00,,FEW085,0.00,VWS V14.01,2013-03-02 03:55:00,
2013-03-01 21:58:00,25.3,21.1,30.39,NW,316,0.0,2.0,84,0.00,,SCT032,0.00,VWS V14.01,2013-03-02 03:58:00,
2013-03-01 22:00:00,23.5,19.7,30.40,WNW,294,1.0,2.0,85,0.00,,FEW085,0.00,VWS V14.01,2013-03-02 04:00:00,
2013-03-01 22:03:00,25.2,20.8,30.39,NW,315,1.0,1.0,83,0.00,,SCT032,0.00,VWS V14.01,2013-03-02 04:03:00,
2013-03-01 22:05:00,23.6,20.0,30.39,West,281,1.0,1.0,86,0.00,,FEW085,0.00,VWS V14.01,2013-03-02 04:05:00,
2013-03-01 22:08:00,25.0,20.3,30.40,NW,314,1.0,1.0,82,0.00,,SCT032,0.00,VWS V14.01,2013-03-02 04:08:00,
2013-03-01 22:10:00,23.5,19.4,30.39,West,274,2.0,2.0,84,0.00,,FEW085,0.00,VWS V14.01,2013-03-02 04:10:00,
2013-03-01 22:13:00,24.7,20.0,30.39,NW,315,1.0,1.0,82,0.00,,SCT032,0.00,VWS V14.01,2013-03-02 04:13:00,
2013-03-01 22:15:00,23.5,19.4,30.39,NW,309,3.0,3.0,84,0.00,,FEW085,0.00,VWS V14.01,2013-03-02 04:15:00,
2013-03-01 22:18:00,24.6,20.5,30.39,West,260,1.0,2.0,84,0.00,,SCT032,0.00,VWS V14.01,2013-03-02 04:18:00,
2013-03-01 22:20:00,23.3,18.9,30.39,WNW,291,1.0,4.0,83,0.00,,FEW085,0.00,VWS V14.01,2013-03-02 04:20:00,
2013-03-01 22:23:00,24.5,20.4,30.39,West,260,1.0,1.0,84,0.00,,SCT032,0.00,VWS V14.01,2013-03-02 04:23:00,
2013-03-01 22:25:00,23.3,19.2,30.40,WNW,302,1.0,3.0,84,0.00,,FEW085,0.00,VWS V14.01,2013-03-02 04:25:00,
2013-03-01 22:28:00,24.3,20.2,30.39,West,269,1.0,2.0,84,0.00,,SCT032,0.00,VWS V14.01,2013-03-02 04:28:00,
2013-03-01 22:30:00,23.2,19.1,30.39,WNW,285,1.0,3.0,84,0.00,,FEW085,0.00,VWS V14.01,2013-03-02 04:30:00,
2013-03-01 22:33:00,24.1,20.0,30.40,WSW,252,1.0,2.0,84,0.00,,FEW032,0.00,VWS V14.01,2013-03-02 04:33:00,
2013-03-01 22:35:00,23.0,18.6,30.39,WNW,300,1.0,1.0,83,0.00,,FEW085,0.00,VWS V14.01,2013-03-02 04:35:00,
2013-03-01 22:38:00,24.0,20.1,30.40,WSW,252,1.0,2.0,85,0.00,,FEW032,0.00,VWS V14.01,2013-03-02 04:38:00,
2013-03-01 22:40:00,22.9,18.8,30.39,NW,305,2.0,2.0,84,0.00,,FEW085,0.00,VWS V14.01,2013-03-02 04:40:00,
2013-03-01 22:43:00,23.9,20.1,30.40,West,271,1.0,1.0,85,0.00,,FEW032,0.00,VWS V14.01,2013-03-02 04:43:00,
2013-03-01 22:45:00,22.8,18.4,30.39,NW,304,1.0,2.0,83,0.00,,FEW085,0.00,VWS V14.01,2013-03-02 04:45:00,
2013-03-01 22:48:00,23.8,19.7,30.40,WNW,302,0.0,3.0,84,0.00,,FEW032,0.00,VWS V14.01,2013-03-02 04:48:00,
2013-03-01 22:50:00,22.6,18.5,30.39,WNW,294,1.0,2.0,84,0.00,,FEW085,0.00,VWS V14.01,2013-03-02 04:50:00,
2013-03-01 22:53:00,23.6,19.5,30.40,West,260,0.0,3.0,84,0.00,,FEW032,0.00,VWS V14.01,2013-03-02 04:53:00,
2013-03-01 22:55:00,22.4,18.3,30.39,WNW,291,1.0,2.0,84,0.00,,FEW085,0.00,VWS V14.01,2013-03-02 04:55:00,
2013-03-01 22:58:00,23.5,19.7,30.40,West,269,1.0,1.0,85,0.00,,FEW032,0.00,VWS V14.01,2013-03-02 04:58:00,
2013-03-01 23:00:00,23.5,19.7,30.40,WNW,294,1.0,2.0,85,0.00,,FEW032,0.00,VWS V14.01,2013-03-02 05:00:00,
2013-03-01 23:05:00,23.6,20.0,30.39,West,281,1.0,1.0,86,0.00,,FEW032,0.00,VWS V14.01,2013-03-02 05:05:00,
2013-03-01 23:10:00,23.5,19.4,30.39,WNW,288,2.0,2.0,84,0.00,,FEW032,0.00,VWS V14.01,2013-03-02 05:10:00,
2013-03-01 23:15:00,23.4,19.0,30.40,NW,318,4.0,4.0,83,0.00,,FEW032,0.00,VWS V14.01,2013-03-02 05:15:00,
2013-03-01 23:20:00,23.3,18.9,30.39,NNW,336,1.0,2.0,83,0.00,,FEW032,0.00,VWS V14.01,2013-03-02 05:20:00,
2013-03-01 23:25:00,23.3,19.2,30.40,NW,316,1.0,3.0,84,0.00,,FEW032,0.00,VWS V14.01,2013-03-02 05:25:00,
2013-03-01 23:30:00,23.2,18.8,30.39,WNW,285,1.0,1.0,83,0.00,,FEW032,0.00,VWS V14.01,2013-03-02 05:30:00,
2013-03-01 23:35:00,23.0,18.6,30.39,WNW,300,1.0,1.0,83,0.00,,CLR,0.00,VWS V14.01,2013-03-02 05:35:00,
2013-03-01 23:40:00,22.8,18.7,30.39,NW,304,1.0,2.0,84,0.00,,CLR,0.00,VWS V14.01,2013-03-02 05:40:00,
2013-03-01 23:45:00,22.7,18.6,30.39,NW,305,1.0,1.0,84,0.00,,CLR,0.00,VWS V14.01,2013-03-02 05:45:00,
2013-03-01 23:50:00,22.5,18.4,30.39,WNW,294,1.0,1.0,84,0.00,,CLR,0.00,VWS V14.01,2013-03-02 05:50:00,
2013-03-01 23:55:00,22.4,18.3,30.40,WNW,291,1.0,1.0,84,0.00,,CLR,0.00,VWS V14.01,2013-03-02 05:55:00,